TimeEDT,TemperatureF,Dew PointF,Humidity,Sea Level PressureIn,VisibilityMPH,Wind Direction,Wind SpeedMPH,Gust SpeedMPH,PrecipitationIn,Events,Conditions,WindDirDegrees,DateUTC
12:53 AM,69.1,62.1,78,30.14,10.0,SSW,5.8,-,N/A,,Clear,210,2013-04-25 04:53:00
1:53 AM,66.9,63.0,87,30.13,10.0,SSW,6.9,-,N/A,,Clear,210,2013-04-25 05:53:00
2:53 AM,66.0,62.1,87,30.12,10.0,SW,4.6,-,N/A,,Clear,230,2013-04-25 06:53:00
3:53 AM,64.9,61.0,87,30.12,10.0,WSW,5.8,-,N/A,,Partly Cloudy,250,2013-04-25 07:53:00
4:53 AM,66.0,61.0,84,30.13,10.0,SW,5.8,-,N/A,,Mostly Cloudy,220,2013-04-25 08:53:00
5:53 AM,64.9,61.0,87,30.13,10.0,SSW,5.8,-,N/A,,Mostly Cloudy,210,2013-04-25 09:53:00
6:53 AM,64.9,61.0,87,30.15,10.0,SW,5.8,-,N/A,,Clear,230,2013-04-25 10:53:00
7:53 AM,66.9,62.1,84,30.18,10.0,SW,6.9,-,N/A,,Mostly Cloudy,220,2013-04-25 11:53:00
8:09 AM,68.0,62.6,83,30.18,10.0,WSW,8.1,-,N/A,,Overcast,240,2013-04-25 12:09:00
8:53 AM,68.0,60.1,76,30.19,10.0,WSW,6.9,-,N/A,,Overcast,250,2013-04-25 12:53:00
9:04 AM,68.0,60.8,78,30.19,10.0,WSW,6.9,-,N/A,,Mostly Cloudy,240,2013-04-25 13:04:00
9:53 AM,71.1,61.0,70,30.20,10.0,SW,5.8,-,N/A,,Mostly Cloudy,220,2013-04-25 13:53:00
10:53 AM,73.9,63.0,68,30.20,10.0,SW,5.8,-,N/A,,Clear,230,2013-04-25 14:53:00
11:53 AM,77.0,63.0,62,30.20,10.0,Variable,3.5,-,N/A,,Clear,0,2013-04-25 15:53:00
12:53 PM,79.0,64.0,60,30.19,10.0,SSW,5.8,-,N/A,,Partly Cloudy,210,2013-04-25 16:53:00
1:53 PM,81.0,63.0,54,30.18,10.0,South,8.1,-,N/A,,Scattered Clouds,180,2013-04-25 17:53:00
2:53 PM,80.1,64.9,60,30.17,10.0,SSE,8.1,-,N/A,,Scattered Clouds,150,2013-04-25 18:53:00
3:53 PM,78.1,64.9,64,30.15,10.0,SSE,6.9,-,N/A,,Mostly Cloudy,160,2013-04-25 19:53:00
4:53 PM,75.0,64.9,71,30.13,10.0,South,9.2,-,N/A,,Mostly Cloudy,170,2013-04-25 20:53:00
5:53 PM,75.9,64.0,67,30.14,10.0,SSE,6.9,-,N/A,,Partly Cloudy,160,2013-04-25 21:53:00
6:53 PM,73.9,64.9,73,30.14,10.0,South,10.4,-,N/A,,Partly Cloudy,180,2013-04-25 22:53:00
7:53 PM,73.9,66.0,76,30.15,10.0,South,3.5,-,N/A,,Clear,170,2013-04-25 23:53:00
8:53 PM,72.0,66.0,81,30.17,10.0,Calm,Calm,-,N/A,,Clear,0,2013-04-26 00:53:00
9:53 PM,70.0,64.9,84,30.19,10.0,WSW,4.6,-,N/A,,Clear,240,2013-04-26 01:53:00
10:53 PM,70.0,64.9,84,30.21,10.0,West,3.5,-,N/A,,Clear,280,2013-04-26 02:53:00
11:53 PM,72.0,59.0,64,30.21,10.0,NNW,5.8,-,N/A,,Clear,340,2013-04-26 03:53:00